| time (UTC) | temp F | wind direction | speed MPH | gust MPH | rain 1hr in | rain 24hr in | rain mn in | humidity % | barometer mb |
| 20260508121821 | 46 | 304 | 2.0 | 4.0 | 0.00 | 3.39 | 0.00 | 97 | 1001.5 |
| 20260508120325 | 46 | 304 | 5.0 | 8.0 | 0.00 | 3.39 | 0.00 | 97 | 1001.7 |
| 20260508114834 | 47 | 304 | 1.0 | 5.0 | 0.00 | 3.39 | 0.00 | 97 | 1001.8 |
| 20260508113358 | 46 | 304 | 3.0 | 6.0 | 0.00 | 3.39 | 0.00 | 97 | 1001.8 |
| 20260508111826 | 43 | 304 | 2.0 | 5.0 | 0.00 | 3.39 | 0.00 | 97 | 1001.8 |
| 20260508110333 | 43 | 304 | 1.0 | 3.0 | 0.00 | 3.39 | 0.00 | 97 | 1001.8 |
| 20260508104830 | 42 | 305 | 0.0 | 4.0 | 0.00 | 3.39 | 0.00 | 97 | 1001.7 |
| 20260508103324 | 42 | 304 | 2.0 | 5.0 | 0.00 | 3.39 | 0.00 | 97 | 1002.0 |
| 20260508101844 | 42 | 305 | 3.0 | 4.0 | 0.00 | 3.39 | 0.00 | 97 | 1002.0 |
| 20260508100334 | 41 | 304 | 2.0 | 3.0 | 0.00 | 3.39 | 0.00 | 97 | 1001.9 |
| 20260508094824 | 41 | 304 | 1.0 | 5.0 | 0.00 | 3.39 | 0.00 | 97 | 1001.9 |
| 20260508093328 | 42 | 304 | 1.0 | 5.0 | 0.00 | 3.39 | 0.00 | 97 | 1001.5 |
| 20260508091838 | 42 | 304 | 4.0 | 8.0 | 0.00 | 3.39 | 0.00 | 97 | 1001.6 |
| 20260508090341 | 43 | 306 | 0.0 | 2.0 | 0.00 | 3.39 | 0.00 | 96 | 1001.2 |
| 20260508084830 | 46 | 306 | 0.0 | 4.0 | 0.00 | 3.39 | 0.00 | 97 | 1001.0 |
| 20260508083324 | 46 | 306 | 1.0 | 3.0 | 0.00 | 3.39 | 0.00 | 97 | 1001.3 |
| 20260508081842 | 47 | 306 | 1.0 | 5.0 | 0.00 | 3.39 | 0.00 | 97 | 1001.2 |
| 20260508080353 | 47 | 306 | 0.0 | 4.0 | 0.00 | 3.39 | 0.00 | 97 | 1001.2 |
| 20260508074827 | 47 | 306 | 1.0 | 6.0 | 0.00 | 3.39 | 0.00 | 97 | 1001.0 |
| 20260508073322 | 47 | 306 | 1.0 | 4.0 | 0.00 | 3.39 | 0.00 | 97 | 1001.1 |
| 20260508071841 | 47 | 306 | 1.0 | 5.0 | 0.00 | 3.39 | 0.00 | 97 | 1001.1 |
| 20260508070335 | 47 | 306 | 1.0 | 4.0 | 0.00 | 3.39 | 0.00 | 97 | 1001.2 |
| 20260508064825 | 47 | 306 | 0.0 | 0.0 | 0.00 | 3.39 | 0.00 | 97 | 1001.3 |
| 20260508063348 | 47 | 306 | 0.0 | 4.0 | 0.00 | 3.39 | 0.00 | 97 | 1001.1 |
| 20260508061906 | 47 | 306 | 1.0 | 4.0 | 0.00 | 3.39 | 0.00 | 97 | 1001.5 |
| 20260508060337 | 46 | 306 | 2.0 | 5.0 | 0.00 | 3.39 | 0.00 | 96 | 1001.1 |
| 20260508054824 | 46 | 306 | 0.0 | 3.0 | 0.00 | 3.39 | 0.00 | 96 | 1001.3 |
| 20260508053327 | 48 | 306 | 0.0 | 0.0 | 0.00 | 3.39 | 0.00 | 96 | 1001.2 |
| 20260508051853 | 48 | 306 | 0.0 | 1.0 | 0.00 | 3.39 | 0.00 | 96 | 1001.3 |
| 20260508050336 | 48 | 306 | 0.0 | 0.0 | 0.00 | 3.39 | 0.00 | 96 | 1001.3 |
| 20260508044825 | 48 | 306 | 0.0 | 0.0 | 0.00 | 3.39 | 0.00 | 97 | 1001.3 |
| 20260508043346 | 48 | 306 | 0.0 | 0.0 | 0.00 | 3.39 | 0.00 | 97 | 1001.2 |
| 20260508041835 | 48 | 306 | 0.0 | 2.0 | 0.00 | 3.39 | 0.00 | 96 | 1001.2 |
| 20260508040331 | 48 | 306 | 1.0 | 3.0 | 0.00 | 3.39 | 0.00 | 96 | 1001.5 |
| 20260508034821 | 48 | 306 | 0.0 | 1.0 | 0.00 | 3.39 | 0.00 | 96 | 1001.7 |
| 20260508033345 | 47 | 306 | 2.0 | 4.0 | 0.00 | 3.39 | 0.00 | 96 | 1001.7 |
| 20260508031834 | 47 | 306 | 4.0 | 8.0 | 0.00 | 3.39 | 0.00 | 96 | 1001.7 |
| 20260508030329 | 47 | 299 | 0.0 | 2.0 | 0.00 | 3.39 | 0.00 | 96 | 1001.9 |
| 20260508024844 | 48 | 299 | 1.0 | 4.0 | 0.00 | 3.39 | 0.68 | 96 | 1001.9 |
| 20260508023338 | 48 | 299 | 0.0 | 2.0 | 0.00 | 3.39 | 0.68 | 96 | 1001.8 |
| 20260508021828 | 48 | 299 | 1.0 | 5.0 | 0.00 | 3.39 | 0.68 | 96 | 1001.7 |
| 20260508020322 | 50 | 297 | 0.0 | 1.0 | 0.00 | 3.39 | 0.68 | 96 | 1001.7 |
| 20260508014837 | 49 | 297 | 0.0 | 2.0 | 0.00 | 3.39 | 0.68 | 95 | 1001.7 |
| 20260508013331 | 51 | 297 | 1.0 | 4.0 | 0.00 | 3.39 | 0.68 | 96 | 1001.9 |
| 20260508011829 | 50 | 297 | 0.0 | 0.0 | 0.00 | 3.39 | 0.68 | 96 | 1001.8 |
| 20260508010323 | 51 | 297 | 0.0 | 0.0 | 0.00 | 3.39 | 0.68 | 95 | 1001.7 |
| 20260508004833 | 52 | 297 | 1.0 | 5.0 | 0.04 | 3.39 | 0.68 | 96 | 1001.4 |
| 20260508003353 | 52 | 293 | 3.0 | 8.0 | 0.04 | 3.39 | 0.68 | 95 | 1001.2 |
| 20260508001822 | 52 | 225 | 1.0 | 5.0 | 0.04 | 3.39 | 0.68 | 95 | 1001.4 |
| 20260508000327 | 52 | 225 | 1.0 | 5.0 | 0.04 | 3.39 | 0.68 | 95 | 1001.4 |
| 20260507234833 | 52 | 223 | 1.0 | 5.0 | 0.00 | 3.35 | 0.67 | 95 | 1001.3 |
| 20260507233328 | 53 | 207 | 2.0 | 4.0 | 0.00 | 3.35 | 0.67 | 95 | 1001.2 |
| 20260507231827 | 53 | 201 | 0.0 | 6.0 | 0.00 | 3.35 | 0.67 | 95 | 1001.1 |
| 20260507230322 | 54 | 197 | 4.0 | 7.0 | 0.00 | 3.35 | 0.67 | 95 | 1001.0 |
| 20260507224832 | 55 | 196 | 0.0 | 4.0 | 0.00 | 3.35 | 0.67 | 95 | 1001.0 |
| 20260507223336 | 55 | 197 | 1.0 | 3.0 | 0.00 | 3.35 | 0.67 | 94 | 1001.0 |
| 20260507221825 | 55 | 196 | 1.0 | 8.0 | 0.00 | 3.35 | 0.67 | 94 | 1001.1 |
| 20260507220349 | 55 | 204 | 5.0 | 10.0 | 0.00 | 3.35 | 0.67 | 94 | 1001.2 |
| 20260507214820 | 55 | 200 | 3.0 | 11.0 | 0.00 | 3.35 | 0.67 | 93 | 1001.0 |
| 20260507213332 | 55 | 188 | 6.0 | 10.0 | 0.00 | 3.35 | 0.67 | 93 | 1000.9 |
| 20260507211822 | 56 | 176 | 8.0 | 11.0 | 0.00 | 3.35 | 0.67 | 93 | 1000.9 |
| 20260507210326 | 56 | 182 | 5.0 | 11.0 | 0.00 | 3.35 | 0.67 | 93 | 1000.7 |
| 20260507204833 | 56 | 185 | 8.0 | 14.0 | 0.00 | 3.35 | 0.67 | 93 | 1000.5 |
| 20260507203337 | 57 | 188 | 6.0 | 11.0 | 0.00 | 3.35 | 0.67 | 95 | 1000.4 |
| 20260507201845 | 56 | 236 | 5.0 | 8.0 | 0.08 | 3.35 | 0.67 | 96 | 1000.7 |
| 20260507200347 | 55 | 244 | 4.0 | 11.0 | 0.08 | 3.35 | 0.67 | 95 | 1000.9 |
| 20260507194856 | 54 | 208 | 5.0 | 12.0 | 0.28 | 3.35 | 0.67 | 95 | 1000.8 |
| 20260507193338 | 54 | 173 | 7.0 | 10.0 | 0.51 | 3.35 | 0.67 | 95 | 1000.1 |
| 20260507191826 | 53 | 165 | 8.0 | 14.0 | 0.55 | 3.27 | 0.65 | 95 | 1000.0 |
| 20260507190408 | 54 | 190 | 7.0 | 12.0 | 0.71 | 3.27 | 0.65 | 95 | 1001.1 |
| 20260507184836 | 54 | 179 | 9.0 | 16.0 | 0.79 | 3.07 | 0.61 | 95 | 1001.5 |
| 20260507183328 | 55 | 188 | 7.0 | 17.0 | 0.83 | 2.83 | 0.57 | 95 | 1002.6 |
| 20260507181846 | 55 | 183 | 7.0 | 13.0 | 1.14 | 2.68 | 0.54 | 95 | 1002.3 |
| 20260507180359 | 56 | 184 | 7.0 | 19.0 | 1.50 | 2.56 | 0.51 | 95 | 1002.7 |
| 20260507174837 | 56 | 189 | 5.0 | 15.0 | 1.81 | 2.28 | 0.46 | 94 | 1002.9 |
| 20260507173330 | 56 | 179 | 7.0 | 12.0 | 1.97 | 2.01 | 0.40 | 94 | 1002.8 |
| 20260507171820 | 56 | 219 | 6.0 | 16.0 | 1.50 | 1.50 | 0.30 | 94 | 1003.5 |
| 20260507170343 | 57 | 217 | 9.0 | 16.0 | 1.06 | 1.06 | 0.21 | 93 | 1003.6 |
| 20260507164849 | 57 | 228 | 8.0 | 18.0 | 0.47 | 0.47 | 0.09 | 93 | 1003.5 |
| 20260507163332 | 57 | 180 | 18.0 | 29.0 | 0.04 | 0.04 | 0.01 | 91 | 1002.7 |
| 20260507161841 | 58 | 183 | 13.0 | 32.0 | 0.00 | 0.00 | 0.00 | 91 | 1002.8 |
| 20260507160342 | 58 | 175 | 17.0 | 31.0 | 0.00 | 0.00 | 0.00 | 90 | 1002.9 |
| 20260507154831 | 58 | 164 | 14.0 | 26.0 | 0.00 | 0.00 | 0.00 | 89 | 1003.4 |
| 20260507153355 | 58 | 179 | 16.0 | 29.0 | 0.00 | 0.00 | 0.00 | 88 | 1003.8 |
| 20260507151824 | 58 | 163 | 14.0 | 30.0 | 0.00 | 0.00 | 0.00 | 88 | 1004.2 |
| 20260507150348 | 58 | 168 | 18.0 | 29.0 | 0.00 | 0.00 | 0.00 | 88 | 1004.1 |
| 20260507144836 | 58 | 165 | 18.0 | 30.0 | 0.00 | 0.00 | 0.00 | 88 | 1004.8 |
| 20260507143329 | 57 | 200 | 16.0 | 32.0 | 0.00 | 0.00 | 0.00 | 88 | 1005.5 |
| 20260507141827 | 57 | 175 | 14.0 | 30.0 | 0.00 | 0.00 | 0.00 | 89 | 1005.3 |
| 20260507140342 | 57 | 180 | 16.0 | 30.0 | 0.00 | 0.00 | 0.00 | 88 | 1005.5 |
| 20260507134839 | 57 | 145 | 16.0 | 29.0 | 0.00 | 0.00 | 0.00 | 86 | 1005.9 |
| 20260507133334 | 59 | 179 | 19.0 | 36.0 | 0.00 | 0.00 | 0.00 | 83 | 1006.1 |
| 20260507131824 | 59 | 184 | 16.0 | 32.0 | 0.00 | 0.00 | 0.00 | 83 | 1006.0 |
| 20260507130328 | 58 | 182 | 16.0 | 27.0 | 0.00 | 0.00 | 0.00 | 84 | 1006.3 |
| 20260507124838 | 58 | 186 | 13.0 | 30.0 | 0.00 | 0.00 | 0.00 | 85 | 1006.4 |
| 20260507123332 | 58 | 174 | 15.0 | 25.0 | 0.00 | 0.00 | 0.00 | 85 | 1006.8 |